Hourly Data Report for October 05, 2016

All times are specified in Local Standard Time (LST). Add 1 hour to adjust for Daylight Saving Time where and when it is observed.

CLYDE RIVER A
NUNAVUT

70°29'09.000" N
68°31'01.000" W
26.50 m
2400804
71090
YCY

Download Data

Hourly Data (October 2016)
Hourly Data Report for October 5, 2016
Temp Definition
°C
Dew Point Temp Definition
°C
Rel Hum Definition
%
Wind Dir Definition
10's deg

Wind Spd Definition
km/h
Visibility Definition
km
Stn Press Definition
kPa
Hmdx Definition


Wind Chill Definition


Weather Definition


TIME
00:00 Legend Double Dagger -0.4 -2.8 84 1 11 16.1 99.95   -4 LegendNANA
01:00 Legend Double Dagger 0.0 -3.2 79 1 15 16.1 99.98   -4 LegendNANA
02:00 Legend Double Dagger 0.0 -3.4 78 1 15 16.1 100.03   -4 LegendNANA
03:00 Legend Double Dagger 0.1 -3.6 76 36 21 16.1 100.06     LegendNANA
04:00 Legend Double Dagger 0.2 -3.6 75 36 22 16.1 100.09     LegendNANA
05:00 Legend Double Dagger 0.2 -3.7 75 35 26 16.1 100.12     LegendNANA
06:00 Legend Double Dagger 0.1 -3.4 77 1 22 16.1 100.19     LegendNANA
07:00 Legend Double Dagger 0.0 -4.7 71 36 28 16.1 100.23   -6 LegendNANA
08:00 Legend Double Dagger 0.2 -4.6 70 36 28 16.1 100.27     LegendNANA
09:00 Legend Double Dagger 0.2 -4.2 72 35 32 16.1 100.30     LegendNANA
10:00 Legend Double Dagger 0.1 -4.3 72 34 37 16.1 100.32     LegendNANA
11:00 Legend Double Dagger 0.1 -4.1 74 35 37 16.1 100.35     LegendNANA
12:00 Legend Double Dagger -0.5 -2.8 84 35 39 8.1 100.34   -8 Snow
13:00 Legend Double Dagger -0.2 -2.8 83 34 39 16.1 100.36   -8 LegendNANA
14:00 Legend Double Dagger -0.7 -1.6 94 34 35 2.8 100.40   -8 Snow
15:00 Legend Double Dagger -0.5 -2.1 89 34 39 9.7 100.43   -8 Snow
16:00 Legend Double Dagger -0.6 -2.7 86 34 45 4.8 100.44   -9 Snow
17:00 Legend Double Dagger -0.8 -3.0 85 34 48 16.1 100.49   -9 Snow
18:00 Legend Double Dagger -1.2 -4.1 81 34 35 16.1 100.54   -9 Snow
19:00 Legend Double Dagger -1.5 -4.0 83 34 43 16.1 100.54   -10 LegendNANA
20:00 Legend Double Dagger -1.8 -4.6 81 33 39 16.1 100.55   -10 LegendNANA
21:00 Legend Double Dagger -2.0 -4.7 82 33 46 16.1 100.53   -11 LegendNANA
22:00 Legend Double Dagger -2.3 -5.1 81 32 39 16.1 100.54   -10 LegendNANA
23:00 Legend Double Dagger -2.2 -4.8 82 33 39 16.1 100.52   -10 LegendNANA

Notes on Data Quality.

Legend

  • E = Estimated
  • M = Missing
  • NA = Not Available
  • ‡ = Partner data that is not subject to review by the National Climate Archives
Date modified: